Regional Weather Roundup
Issued by NWS

Home | Current Version | Previous Version | Graphics & Text | Print | Product List | Glossary On
Versions: 1 2 3 4 5 6 7 8 9 10 11 12 13 14 15 16 17 18 19 20 21 22 23 24 25 26 27
000
ASUS45 KSLC 302010
RWRUT

UTAH REGIONAL WEATHER ROUNDUP
NATIONAL WEATHER SERVICE SALT LAKE CITY UT
200 PM MDT MON MAY 30 2016

UTZ001>011-023>025-302100-

NORTHERN UTAH

CITY           SKY/WX    TMP DP  RH WIND       PRES   REMARKS
BRIGHAM CITY     N/A     71  40  32 CALM      30.10S
HILL AFB       MOSUNNY   71  40  33 NW10G17   30.11F
LOGAN          MOSUNNY   71  45  39 W12       30.09F
OGDEN          SUNNY     72  41  32 VRB3      30.10S
PROVO AIRPORT  MOSUNNY   73  45  35 VRB5      30.09F
SALT LAKE CITY MOSUNNY   77  41  27 NW10      30.08F
VERNAL         CLOUDY    70  39  32 W5        30.09S
WENDOVER       SUNNY     73  43  33 SE8       30.10F
HEBER CITY     MOSUNNY   72  30  21 CALM      30.10F
WEST JORDAN    SUNNY     72  43  35 NW10      30.10F

$$

UTZ012>022-026-027-302100-

SOUTHERN/CENTRAL UTAH

CITY           SKY/WX    TMP DP  RH WIND       PRES   REMARKS
BLANDING       MOSUNNY   78  23  13 SW3       30.14F
BRYCE CANYON   LGT RAIN  58  23  26 MISG      30.21S
CEDAR CITY     MOSUNNY   78  31  17 N10G23    30.07F
DELTA          MOSUNNY   77  30  18 NE12G18   30.08F
HANKSVILLE     SUNNY     82  30  15 E9G16     30.00F
MILFORD        SUNNY     80  33  18 NE14G26   30.06F
MOAB/CYNLANDS  MOSUNNY   81  29  15 VRB5G21   29.98F
PRICE          SUNNY     77  12   8 NW13G20   30.08F
ST GEORGE      PTCLDY    86  34  15 NW8       29.94F
KANAB          CLOUDY    72  30  21 NW18G25   30.11R

$$

REGIONAL REPORTS     COLORADO/ARIZONA

CITY           SKY/WX    TMP DP  RH WIND       PRES   REMARKS
CRAIG, CO      SUNNY     69  39  33 W10G18    30.10F
GRAND JUNCTION CLOUDY    79  34  19 NW14      29.99F
RIFLE          CLOUDY    79  35  20 W15       30.02F
MONTROSE       CLOUDY    77  34  21 NW21      30.06S
CORTEZ         SUNNY     80  18  10 W10G20    30.07F
PAGE, AZ       MOSUNNY   87  25  10 NE8G20    29.97F
GRAND CANYON   PTSUNNY   70  22  16 VRB7G20   30.14F
KINGMAN        SUNNY     85  17   8 NE9G16    29.97F
FLAGSTAFF      MOSUNNY   69  21  16 MISG      30.15F

$$

REGIONAL REPORTS    NEVADA/IDAHO/WYOMING

CITY           SKY/WX    TMP DP  RH WIND       PRES   REMARKS
LAS VEGAS, NV  MOSUNNY   90  25   9 SW3       29.87F
ELY            SUNNY     72  29  20 E8G22     30.16F
ELKO           MOSUNNY   73  34  23 VRB6G16   30.14F
POCATELLO, ID  CLOUDY    72  31  22 W22G32    30.12F
BURLEY         SUNNY     69  32  25 W16G30    30.12S
EVANSTON, WY   PTSUNNY   62  33  33 NW10G17   30.19F
ROCK SPRINGS   CLOUDY    60  32  34 N8        30.13F
KEMMERER         N/A     61  32  33 W21G29    30.18S

$$




USA.gov is the U.S. government's official web portal to all federal, state and local government web resources and services.